Location: Gull Harbor
(47.1000°N, 122.9000°W)
Time: 03:07:37
(UTC-07:00)

Envisat - Visible Passes

Search period start: 21 July 2018 00:00
Search period end: 31 July 2018 00:00
Orbit: 764 x 766 km, 98.2° (Epoch: 20 July)

Date Brightness Start Highest point End Pass type
(mag) Time Alt. Az. Time Alt. Az. Time Alt. Az.
22 Jul 5.9 21:59:04 10° WSW 22:00:56 12° W 22:02:49 10° WNW visible
25 Jul 5.7 21:46:44 10° WSW 21:49:37 15° W 21:52:31 10° NW visible
28 Jul 5.6 21:34:47 10° SW 21:38:19 19° W 21:41:52 10° NW visible
30 Jul 6.0 22:03:03 10° W 22:04:14 11° W 22:05:26 10° WNW visible
